Location: Shannon
(40.5500°S, 175.4167°E)
Time: 19:48:56
(UTC+00:00)

Cosmos 1295 Rocket - Pass Details

Date: 17 November 2025
Orbit: 944 x 992 km, 82.9° (Epoch: 14 December)

Event Time Altitude Azimuth Distance (km) Brightness Sun altitude
Exits shadow 12:37:40 89° 309° (NW) 1,001 4.4 -29.8°
Maximum altitude 12:37:42 89° 264° (W) 1,001 4.4 -29.8°
Drops below altitude 10° 12:44:04 10° 173° (S) 2,762 7.8 -29.6°
Sets 12:46:36 0° 172° (S) 3,709 8.7 -29.5°
